Other Public Products
Issued by NWS Charleston, SC

Current Version | Previous Version | Text Only | Print | Product List | Glossary Off
Versions: 1 2 3 4 5 6 7 8 9 10 11 12 13 14 15 16 17 18 19 20 21 22 23 24 25 26 27 28 29 30 31 32 33 34 35 36 37 38 39 40 41 42 43 44 45 46 47 48 49 50
376 FPUS82 KCHS 290327 OPUCHS TEST...KCHS/KSAV Gateway Observations...TEST National Weather Service Charleston SC 1100 PM EDT FRI JUL 28 2017 NOTE: "fair" indicates few or no clouds below 12,000 feet with no significant weather and/or obstructions to visibility. SCZ050-WAZ558-NCZ071-TXZ119-213-PAZ071-DCZ001-FLZ074-172-MI076- NYZ176-178-MAZ016-IL014-TNZ027-NJZ106-GAZ044-MD014-290400- ...Gateway Observations for Charleston International... CITY SKY/WX TMP DP RH WIND PRES REMARKS Chas Airport CLOUDY 78 71 79 SW9 29.79F Seattle PTCLDY 75 52 44 N7 30.06S Charlotte CLOUDY 76 75 97 SW5 29.74F Dallas DFW MOCLDY 91 67 44 S7 29.83R HX 94 Dallas Love PTCLDY 94 65 38 S7 29.84R HX 96 Philladelphia CLOUDY 75 69 81 NE7 29.76F Wash National CLOUDY 73 72 96 NE13 29.68F Baltimore HVY RAIN 73 73 100 NE8 29.70F FOG Miami CLOUDY 83 72 69 S5 29.97S Detroit PTCLDY 63 50 62 N14 30.00F Newark CLOUDY 76 70 82 N5 29.80R Laguardia CLOUDY 76 71 85 NE6 29.80R J F K CLOUDY 75 72 90 NE7 29.80S Boston Logan CLOUDY 68 64 87 NE6 29.85R Ft. Lauderdale MOCLDY 83 75 77 S5 29.95F HX 90 Chicago O`Hare PTCLDY 70 60 70 N13 30.02S Chicago Midway PTCLDY 72 61 68 N10 30.01R Houston Bush PTCLDY 87 75 67 S8 29.89R HX 96 Houston Hobby PTCLDY 86 75 69 S7 29.90R HX 95 Nashville PTCLDY 79 72 79 N8 29.85R Atlanta CLOUDY 78 74 87 W7 29.83S $$ GAZ044-118-TXZ119-213-NCZ071-DCZ001-MDZ014-506-PAZ021-071-NJZ106- NYZ176-178-MAZ106-OHZ011-021-055-MIZ076-KYZ091-ILZ014-INZ047- MNZ060-ONZ431-290400- ...Gateway Observations for Savannah International... CITY SKY/WX TMP DP RH WIND PRES REMARKS Savannah Arpt CLEAR 79 73 82 S5 29.82S Atlanta CLOUDY 78 74 87 W7 29.83S Charlotte CLOUDY 76 75 97 SW5 29.74F Dallas DFW MOCLDY 91 67 44 S7 29.83R HX 94 Houston Bush PTCLDY 87 75 67 S8 29.89R HX 96 Wash National CLOUDY 73 72 96 NE13 29.68F Wash Dulles LGT RAIN 70 68 93 E15 29.68F Baltimore HVY RAIN 73 73 100 NE8 29.70F FOG Philadelphia CLOUDY 75 69 81 NE7 29.76F Newark CLOUDY 76 70 82 N5 29.80R Laguardia CLOUDY 76 71 85 NE6 29.80R J F K CLOUDY 75 72 90 NE7 29.80S Boston CLOUDY 68 64 87 NE6 29.85R Pittsburg RAIN 67 66 97 NE12 29.84R FOG Akron PTCLDY 66 55 67 NE17G26 29.88S Cleveland PTCLDY 71 55 56 NE21G29 29.94S Cincinnati PTCLDY 72 65 78 N13 29.89R Columbus CLEAR 68 61 77 N15G22 29.86S Detroit PTCLDY 63 50 62 N14 30.00F Chicago O`Hare PTCLDY 70 60 70 N13 30.02S Minneapolis CLEAR 74 57 55 SE7 30.08R Indianapolis PTCLDY 73 59 61 NE13 29.94R Toronto Canada PTCLDY 64 54 68 N10 29.98F $$

USA.gov is the U.S. government's official web portal to all federal, state and local government web resources and services.